www.pogodaiklimat.ru

Погода и климат >> Архив погоды >> Ирак >> Haditha


ПОГОДА в Haditha

  • Прогноз погоды в Haditha
  • Монитор погоды в Haditha
  • Климат города

АРХИВ ПОГОДЫ в Haditha

Время (UTC), дата Ветер
(напр.,м/с)
 
Видим.   Явления Облачность Т
(С)
Тd
(С)
f
(%)
Тe
(С)
Тes
(С)
Комфортность P
(гПа)
Po
(гПа)
Тmin
(С)
Tmax
(С)
R
(мм)
R24
(мм)
S
(см)
09 13.06 С 2 9000 м пыль ясно +35.4 +16.5 33 +38 +60 опасность
солнечного
удара
999.8 1000.0
12 13.06 С 2 10 км 3/3 840 м
[Cu hum]
+38.6 +14.9 25 +40 +49 очень
душно
999.7 1000.0
15 13.06 З 9 9000 м гроза, ливневой дождь 9/3 840 м
[Cb cap]
+30.2 +15.1 40 +33 +33 душно 1000.0 1000.0
18 13.06 З 4 10 км 6/6 840 м
[Cu Sc]
+28.8 +15.1 43 +31 +31 жарко 1000.1 1000.0 +39.0 0.5
21 13.06 СЗ 4 10 км 3/3 840 м
[Cu med, cong]
+27.2 +16.8 53 +31 +31 душно 1000.1 1000.0
00 14.06 З 3 10 км 3/3 840 м
[Cu hum]
+26.0 +17.4 59 +30 +30 душно 1000.2 1000.0
03 14.06 З 4 8000 м пыль 4/3 840 м
[Cu med, cong]
+22.4 +17.5 74 +27 +28 душно 1002.4 1002.0
06 14.06 З 2 10 км ясно +29.2 +17.9 51 +34 +46 очень
душно
1002.1 1002.0 +22.1
09 14.06 З 4 10 км ясно +34.6 +13.3 28 +35 +50 очень
жарко
1001.9 1002.0
12 14.06 З 2 10 км ясно +37.9 +12.0 21 +37 +51 опасность
солнечного
удара
999.7 1000.0
15 14.06 З 3 10 км ясно +36.6 +11.5 22 +36 +37 очень
жарко
999.8 1000.0
18 14.06 З 2 10 км ясно +33.2 +12.5 28 +33 +33 жарко 1000.0 1000.0 +38.5
21 14.06 СЗ 4 10 км 3/3 840 м
[Cu med, cong]
+27.2 +16.8 53 +31 +31 душно 1000.1 1000.0
00 15.06 З 1 10 км ясно +26.2 +12.8 43 +28 +28 жарко 1002.2 1002.0
03 15.06 З 2 10 км ясно +25.0 +13.0 47 +27 +28 жарко 1004.3 1004.0
06 15.06 СЗ 2 10 км ясно +31.4 +16.9 42 +35 +47 очень
душно
1004.0 1004.0 +24.0
09 15.06 З 4 10 км ясно +36.0 +16.7 32 +39 +53 опасность
солнечного
удара
1003.9 1004.0
12 15.06 З 3 10 км ясно +38.6 +18.0 30 +42 +53 опасность
перегрева
1003.8 1004.0
15 15.06 З 3 10 км 4/0
[Ac trans]
+37.0 +17.7 32 +40 +41 очень
душно
1001.8 1002.0
21 15.06 С 3 10 км 5/0
[Ac trans]
+32.8 +16.8 38 +36 +36 очень
душно
1004.0 1004.0
00 16.06 штиль 0 10 км 4/4
[Cu Sc Ac trans]
+28.8 +15.9 46 +32 +32 душно 1004.2 1004.0
03 16.06 штиль 0 10 км 3/0
[Ac trans]
+26.0 +14.3 48 +28 +29 жарко 1004.3 1004.0
06 16.06 З 3 10 км ясно +30.6 +17.4 45 +35 +45 очень
душно
1008.1 1008.0 +25.0
09 16.06 СЗ 3 10 км ясно +36.3 +13.6 26 +37 +55 опасность
солнечного
удара
1005.9 1006.0
12 16.06 З 5 10 км ясно +44.0 +10.7 14 +41 +48 опасность
перегрева
1005.6 1006.0
15 16.06 З 4 10 км ясно +37.7 +9.4 18 +36 +37 очень
жарко
1003.8 1004.0
18 16.06 З 3 10 км ясно +34.2 +10.6 24 +34 +34 очень
жарко
1006.0 1006.0 +44.3
21 16.06 З 3 10 км ясно +29.9 +8.0 25 +29 +29 жарко 1006.1 1006.0
00 17.06 штиль 0 10 км ясно +26.7 +9.0 33 +27 +27 жарко 1006.3 1006.0
03 17.06 З 2 10 км ясно +24.4 +4.3 27 +24 +25 комфорт 1006.4 1006.0
06 17.06 З 2 10 км ясно +33.0 +11.2 26 +33 +45 жарко 1010.0 1010.0 +24.0
09 17.06 штиль 0 10 км ясно +40.6 +11.2 17 +39 +68 опасность
солнечного
удара
1007.8 1008.0
12 17.06 З 3 10 км ясно +42.8 +9.0 13 +41 +52 опасность
перегрева
1003.6 1004.0
15 17.06 З 4 10 км 3/0
[Ac trans]
+40.4 +9.3 16 +39 +40 очень
жарко
1003.7 1004.0
18 17.06 СЗ 1 10 км ясно +32.8 +15.5 35 +35 +35 душно 1004.0 1004.0 +43.0
21 17.06 З 1 10 км ясно +31.6 +10.9 28 +32 +32 жарко 1004.0 1004.0
00 18.06 З 5 10 км ясно +28.4 +8.0 28 +28 +28 жарко 1004.2 1004.0
06 18.06 З 6 10 км ясно +28.6 +14.6 42 +31 +36 жарко 1006.2 1006.0 +25.7
09 18.06 СЗ 3 10 км ясно +33.6 +11.6 26 +33 +51 опасность
солнечного
удара
1006.0 1006.0
12 18.06 З 5 10 км ясно +35.9 +9.7 20 +35 +42 очень
жарко
1005.9 1006.0
15 18.06 З 4 10 км ясно +35.8 +11.5 23 +35 +36 очень
жарко
1003.9 1004.0
18 18.06 З 3 10 км ясно +31.8 +11.0 28 +32 +32 жарко 1004.0 1004.0 +36.5
21 18.06 штиль 0 10 км ясно +27.0 +9.4 33 +31 +31 душно 1004.2 1004.0
00 19.06 З 4 10 км ясно +23.9 +8.7 38 +25 +25 комфорт 1006.4 1006.0
03 19.06 З 3 10 км ясно +24.1 +10.8 43 +25 +26 комфорт 1006.4 1006.0
06 19.06 З 3 10 км ясно +29.6 +14.9 41 +32 +42 душно 1008.1 1008.0 +23.0
09 19.06 З 1 10 км ясно +35.5 +14.4 28 +36 +62 опасность
солнечного
удара
1007.9 1008.0
12 19.06 З 1 10 км ясно +37.4 +11.4 21 +37 +53 опасность
солнечного
удара
1005.8 1006.0
15 19.06 З 1 10 км ясно +37.0 +10.1 20 +36 +38 очень
жарко
1005.8 1006.0
18 19.06 штиль 0 10 км ясно +33.6 +12.6 28 +34 +34 очень
жарко
1006.0 1006.0 +38.0
06 20.06 З 3 10 км ясно +31.6 +15.5 38 +34 +44 душно 1008.1 1008.0 +23.0

 

Местоположение метеостанции Haditha (Ирак): широта 34.07 долгота 42.37 высота над уровнем моря 140 м.

В архиве по умолчанию представлена погода в Haditha за последнюю неделю. Архивные данные за месяц целиком и за предыдущие месяцы, начиная с января 2011 года, Вы можете получить, выбрав интересующий диапазон дат из раскрывающегося списка и нажав кнопку "Ввод!".


*Определитесь, кто Вы:
робот инопланетянин человек

Внимание! Время в таблицах - всемирное. Для получения местного времени необходимо прибавить поправку, которая в Haditha равна 3 ч.

Смотрите также архив погоды в соседних городах и на ближайших метеорологических станциях:

Погода в Ana (Ирак) (59 км)
Погода в Ramadi (Ирак) (112 км)
Погода в Al Qaim (Ирак) (129 км)
Погода в Tikrit (Ирак) (134 км)
Погода в Heet (Ирак) (137 км)
Погода в Abu Kamal (Сирия) (139 км)
Погода в Baiji (Ирак) (140 км)
Погода в Baghdad (Ирак) (196 км)
Погода в Al-Khalis (Ирак) (201 км)
Погода в Makhmoor (Ирак) (218 км)

Пояснения к столбцам:

Ветер - указаны скорость ветра в м/с - средняя за 10 мин, порывы в срок и между сроками (в фигурных скобках) и направление, откуда дует ветер: С - северный, СВ - северо-восточный, В - восточный, ЮВ - юго-восточный, Ю - южный, ЮЗ - юго-западный, З - западный, СЗ - северо-западный.
Видимость - горизонтальная дальность видимости в метрах или километрах. При видимости от 1 до 10 км при отсутствии осадков обычно наблюдается дымка, при ухудшении видимости до 1 км и менее - туман. В сухую погоду видимость может ухудшаться дымом, пылью или мглою.
Явления - указаны атмосферные явления, наблюдавшиеся в срок или в последний час перед сроком; фигурными скобками обозначены явления, наблюдавшиеся между сроками (за 1-3 часа до срока); квадратными скобками обозначены град или гололедные отложения с указанием их диаметра в мм.
Облачность - указаны через наклонную черту общая и нижняя облачность в баллах и высота нижней границы облаков в метрах; квадратными скобками обозначены формы облаков: Ci - перистые, Cs - перисто-слоистые, Cc - перисто-кучевые, Ac - высококучевые, As - высокослоистые, Sc - слоисто-кучевые, Ns - слоисто-дождевые, Cu - кучевые, Cb - кучево-дождевые. Подробнее классификацию облаков см. в Атласе облаков (PDF).
T - Температура воздуха - температура, измеренная на высоте 2 м над землей.
Td - Температура точки росы - температура, при понижении до которой содержащийся в воздухе водяной пар достигнет насыщения.
f - Относительная влажность воздуха - влажноcть воздуха, измеренная на высоте 2 м над землей.
Te - Эффективная температура - температура, которую ощущает одетый по сезону человек в тени. Характеристика душности погоды. При расчете учитывается влияние влажности воздуха и скорости ветра на теплоощущения человека.
Tes - Эффективная температура на солнце - температура, которую ощущает человек, с поправкой на солнечный нагрев. Характеристика знойности погоды. Зависит от высоты солнца над горизонтом, облачности и скорости ветра. Ночью, в пасмурную погоду, а также при ветре 12 м/с и более поправка равна нулю.
P - Атмосферное давление - приведенное к уровню моря атмосферное давление.
Po - Атмосферное давление - измеренное на уровне метеостанции атмосферное давление.
Tmin - Минимальная температура - минимум температуры воздуха на высоте 2 м над землей.
Tmax - Максимальная температура - максимум температуры воздуха на высоте 2 м над землей.
R - Количество осадков - Количество выпавших осадков за период времени, мм. При наведении курсора мыши на число - период времени, за который выпало указанное количество осадков.
R24 - Количество осадков - Количество выпавших осадков за 24 часа, мм.
S - Снежный покров - Высота снежного покрова, см. При наведении курсора мыши на число - состояние снежного покрова и степень покрытия местности в баллах.